Data No, UTC Date,UTC Time,Latitude,Longitude,Course(deg),Temp(degC),Sal(psu)
500,2017/10/9,8:19,35-35.54N,139-47.01E,180,22.617,27.4959
501,2017/10/9,8:20,35-35.33N,139-47.11E,151,22.63,25.5794
502,2017/10/9,8:21,35-35.16N,139-47.25E,145,22.389,22.2209
503,2017/10/9,8:22,35-35.00N,139-47.44E,134,22.23,24.1975
504,2017/10/9,8:23,35-34.83N,139-47.66E,132,22.37,26.072
505,2017/10/9,8:24,35-34.68N,139-47.86E,133,22.27,26.3604
506,2017/10/9,8:25,35-34.49N,139-48.11E,132,22.222,25.3253
507,2017/10/9,8:26,35-34.30N,139-48.37E,132,22.21,25.7168
508,2017/10/9,8:27,35-34.09N,139-48.68E,127,22.067,25.6397
509,2017/10/9,8:28,35-33.91N,139-48.97E,126,22.071,27.8043
510,2017/10/9,8:29,35-33.76N,139-49.24E,124,22.096,28.5305
511,2017/10/9,8:30,35-33.59N,139-49.54E,123,22.084,28.8054
512,2017/10/9,8:31,35-33.42N,139-49.86E,123,22.058,28.533
513,2017/10/9,8:32,35-33.21N,139-50.22E,127,22.055,28.5694
514,2017/10/9,8:33,35-32.95N,139-50.46E,146,22.141,28.9291
515,2017/10/9,8:34,35-32.67N,139-50.64E,151,22.184,27.2909
516,2017/10/9,8:35,35-32.43N,139-50.80E,151,22.07,28.517
517,2017/10/9,8:36,35-32.14N,139-50.99E,151,22.101,30.0489
518,2017/10/9,8:37,35-31.83N,139-51.11E,168,22.274,30.6378
519,2017/10/9,8:38,35-31.50N,139-51.20E,166,22.009,30.4581
520,2017/10/9,8:39,35-31.18N,139-51.30E,166,22.033,30.6309
521,2017/10/9,8:40,35-30.84N,139-51.34E,180,22.381,30.7471
522,2017/10/9,8:41,35-30.52N,139-51.23E,198,22.357,30.4709
523,2017/10/9,8:42,35-30.21N,139-51.06E,207,22.593,29.7611
524,2017/10/9,8:43,35-29.90N,139-50.86E,207,22.348,30.2172
525,2017/10/9,8:44,35-29.59N,139-50.66E,207,22.22,30.5241
526,2017/10/9,8:45,35-29.27N,139-50.46E,207,22.171,30.9542
527,2017/10/9,8:46,35-28.98N,139-50.23E,218,22.337,31.211
528,2017/10/9,8:47,35-28.76N,139-49.90E,231,22.214,31.1918
529,2017/10/9,8:48,35-28.54N,139-49.55E,232,22.157,30.4461
530,2017/10/9,8:49,35-28.33N,139-49.22E,232,22.262,30.8469
531,2017/10/9,8:50,35-28.12N,139-48.88E,232,22.403,30.6189
532,2017/10/9,8:51,35-27.90N,139-48.53E,232,22.411,30.0907
533,2017/10/9,8:52,35-27.69N,139-48.19E,233,22.361,29.6149
534,2017/10/9,8:53,35-27.49N,139-47.83E,235,22.277,29.4368
535,2017/10/9,8:54,35-27.25N,139-47.55E,221,22.337,29.221
536,2017/10/9,8:55,35-27.00N,139-47.27E,222,22.348,29.2452
537,2017/10/9,8:56,35-26.74N,139-46.98E,222,22.331,29.3195
538,2017/10/9,8:57,35-26.49N,139-46.66E,228,22.206,29.342
539,2017/10/9,8:58,35-26.28N,139-46.32E,233,22.213,29.3958
540,2017/10/9,8:59,35-26.07N,139-45.98E,233,22.132,29.3878
541,2017/10/9,9:00,35-25.87N,139-45.63E,235,22.128,29.5981
542,2017/10/9,9:01,35-25.68N,139-45.27E,237,22.077,29.8019
543,2017/10/9,9:02,35-25.49N,139-44.90E,237,22.111,29.9063
544,2017/10/9,9:03,35-25.31N,139-44.54E,237,22.175,30.12
545,2017/10/9,9:04,35-25.11N,139-44.18E,237,22.246,30.1588
546,2017/10/9,9:05,35-24.92N,139-43.81E,238,22.135,30.1466
547,2017/10/9,9:06,35-24.73N,139-43.45E,234,22.221,30.2539
548,2017/10/9,9:07,35-24.47N,139-43.19E,210,22.226,30.3209
549,2017/10/9,9:08,35-24.18N,139-43.00E,208,22.066,30.3663
550,2017/10/9,9:09,35-23.88N,139-42.80E,207,22.068,30.6144
551,2017/10/9,9:10,35-23.55N,139-42.63E,203,22.01,30.745
552,2017/10/9,9:11,35-23.23N,139-42.46E,203,22.005,30.8381
553,2017/10/9,9:12,35-22.91N,139-42.31E,195,22.057,30.899
554,2017/10/9,9:13,35-22.58N,139-42.31E,178,21.948,30.9614
555,2017/10/9,9:14,35-22.23N,139-42.33E,177,22.025,31.0167
556,2017/10/9,9:15,35-21.87N,139-42.34E,177,22.106,31.1428
557,2017/10/9,9:16,35-21.52N,139-42.36E,178,22.154,31.0674
558,2017/10/9,9:17,35-21.19N,139-42.38E,177,22.156,30.9885
559,2017/10/9,9:18,35-20.91N,139-42.39E,177,22.189,30.9048
560,2017/10/9,9:19,35-20.66N,139-42.40E,177,22.213,30.8568
561,2017/10/9,9:20,35-20.45N,139-42.41E,177,22.164,30.8425
562,2017/10/9,9:21,35-20.25N,139-42.43E,171,22.121,30.73
563,2017/10/9,9:22,35-20.06N,139-42.51E,161,22.102,30.732
564,2017/10/9,9:23,35-19.86N,139-42.60E,155,22.057,30.5225
565,2017/10/9,9:24,35-19.69N,139-42.73E,147,22.013,30.6066
566,2017/10/9,9:25,35-19.52N,139-42.87E,146,22.005,30.7905
567,2017/10/9,9:26,35-19.34N,139-43.03E,143,21.967,30.8449
568,2017/10/9,9:27,35-19.17N,139-43.18E,144,21.997,30.9242
569,2017/10/9,9:28,35-18.99N,139-43.33E,145,21.94,31.0088
570,2017/10/9,9:29,35-18.82N,139-43.48E,145,21.979,31.0993
571,2017/10/9,9:30,35-18.65N,139-43.63E,146,21.928,31.253
572,2017/10/9,9:31,35-18.47N,139-43.76E,147,21.983,31.4144
573,2017/10/9,9:32,35-18.30N,139-43.90E,147,22.025,31.3889
574,2017/10/9,9:33,35-18.11N,139-44.04E,148,21.862,31.1875
575,2017/10/9,9:34,35-17.93N,139-44.19E,147,21.874,31.2586
576,2017/10/9,9:35,35-17.76N,139-44.33E,146,21.884,31.8632
577,2017/10/9,9:36,35-17.58N,139-44.47E,145,21.893,32.0328
578,2017/10/9,9:37,35-17.41N,139-44.62E,144,21.912,31.9945
579,2017/10/9,9:38,35-17.24N,139-44.77E,144,21.936,31.8758
580,2017/10/9,9:39,35-17.06N,139-44.92E,144,21.963,31.7267
581,2017/10/9,9:40,35-16.89N,139-45.07E,142,21.913,31.6289
582,2017/10/9,9:41,35-16.73N,139-45.23E,143,21.932,31.6314
583,2017/10/9,9:42,35-16.56N,139-45.38E,144,21.943,32.0722
584,2017/10/9,9:43,35-16.38N,139-45.53E,144,21.917,32.2632
585,2017/10/9,9:44,35-16.21N,139-45.67E,144,21.96,32.2505
586,2017/10/9,9:45,35-16.05N,139-45.82E,144,21.982,32.2106
587,2017/10/9,9:46,35-15.88N,139-45.97E,144,21.967,32.2935
588,2017/10/9,9:47,35-15.70N,139-46.11E,146,21.949,32.2654
589,2017/10/9,9:48,35-15.50N,139-46.22E,163,21.927,32.2492
590,2017/10/9,9:49,35-15.29N,139-46.24E,175,22.042,32.295
591,2017/10/9,9:50,35-15.08N,139-46.26E,175,22.104,32.3629
592,2017/10/9,9:51,35-14.87N,139-46.28E,175,22.012,32.5813
593,2017/10/9,9:52,35-14.66N,139-46.30E,175,21.905,32.6118
594,2017/10/9,9:53,35-14.44N,139-46.33E,175,21.966,32.3907
595,2017/10/9,9:54,35-14.23N,139-46.35E,175,21.933,32.2992
596,2017/10/9,9:55,35-14.02N,139-46.37E,175,22.003,32.225
597,2017/10/9,9:56,35-13.81N,139-46.39E,175,22.033,32.301
598,2017/10/9,9:57,35-13.59N,139-46.40E,176,21.974,32.2841
599,2017/10/9,9:58,35-13.38N,139-46.42E,176,21.936,32.3571
600,2017/10/9,9:59,35-13.17N,139-46.44E,176,21.969,32.3108
601,2017/10/9,10:00,35-12.96N,139-46.45E,179,21.95,32.3375
602,2017/10/9,10:01,35-12.74N,139-46.42E,191,21.858,32.3712
603,2017/10/9,10:02,35-12.51N,139-46.35E,193,21.925,32.1435
604,2017/10/9,10:03,35-12.25N,139-46.28E,192,22.06,31.9846
605,2017/10/9,10:04,35-11.97N,139-46.21E,192,22.164,32.0866
606,2017/10/9,10:05,35-11.69N,139-46.12E,193,22.114,32.1608
607,2017/10/9,10:06,35-11.40N,139-46.04E,193,22.164,32.1867
608,2017/10/9,10:07,35-11.11N,139-45.96E,193,22.229,32.2302
609,2017/10/9,10:08,35-10.82N,139-45.87E,193,22.207,32.2664
610,2017/10/9,10:09,35-10.53N,139-45.78E,194,22.126,32.262
611,2017/10/9,10:10,35-10.24N,139-45.70E,193,22.245,32.1028
612,2017/10/9,10:11,35-09.95N,139-45.62E,192,22.377,32.0515
613,2017/10/9,10:12,35-09.67N,139-45.54E,192,22.67,32.2217
614,2017/10/9,10:13,35-09.38N,139-45.47E,189,22.724,32.5668
615,2017/10/9,10:14,35-09.08N,139-45.42E,188,22.741,32.7932
616,2017/10/9,10:15,35-08.79N,139-45.37E,187,22.819,32.8385
617,2017/10/9,10:16,35-08.50N,139-45.32E,188,22.84,32.8633
618,2017/10/9,10:17,35-08.21N,139-45.25E,191,22.828,33.05
619,2017/10/9,10:18,35-07.92N,139-45.18E,191,22.833,33.1733
620,2017/10/9,10:19,35-07.62N,139-45.11E,193,22.931,33.2173
621,2017/10/9,10:20,35-07.35N,139-45.01E,197,23.194,33.2974
622,2017/10/9,10:21,35-07.07N,139-44.91E,196,23.439,33.3645
623,2017/10/9,10:22,35-06.79N,139-44.79E,198,23.39,33.572
624,2017/10/9,10:23,35-06.53N,139-44.69E,198,23.677,33.6159
625,2017/10/9,10:24,35-06.25N,139-44.59E,193,23.685,33.7328
626,2017/10/9,10:25,35-05.98N,139-44.53E,189,23.645,33.8057
627,2017/10/9,10:26,35-05.70N,139-44.48E,188,23.606,33.8521
628,2017/10/9,10:27,35-05.42N,139-44.42E,189,23.618,33.8818
629,2017/10/9,10:28,35-05.13N,139-44.36E,189,23.674,33.8842
630,2017/10/9,10:29,35-04.86N,139-44.30E,190,23.897,33.8881
631,2017/10/9,10:30,35-04.59N,139-44.24E,191,23.943,33.9292
632,2017/10/9,10:31,35-04.31N,139-44.18E,189,23.984,33.9691
633,2017/10/9,10:32,35-04.03N,139-44.12E,189,23.907,33.9772
634,2017/10/9,10:33,35-03.75N,139-44.05E,191,23.685,33.9372
635,2017/10/9,10:34,35-03.47N,139-43.99E,191,23.527,33.8358
636,2017/10/9,10:35,35-03.20N,139-43.92E,191,23.424,33.7342
637,2017/10/9,10:36,35-02.92N,139-43.84E,191,23.61,33.613
638,2017/10/9,10:37,35-02.64N,139-43.78E,191,23.619,33.6684
639,2017/10/9,10:38,35-02.37N,139-43.70E,195,23.384,33.7995
640,2017/10/9,10:39,35-02.10N,139-43.61E,194,23.34,33.891
641,2017/10/9,10:40,35-01.83N,139-43.53E,192,23.379,33.944
642,2017/10/9,10:41,35-01.56N,139-43.44E,194,23.541,33.9475
643,2017/10/9,10:42,35-01.28N,139-43.35E,195,23.05,33.8971
644,2017/10/9,10:43,35-01.00N,139-43.27E,193,23.113,33.7762
645,2017/10/9,10:44,35-00.72N,139-43.19E,191,22.849,33.5057
646,2017/10/9,10:45,35-00.43N,139-43.13E,191,23.361,33.5171
647,2017/10/9,10:46,35-00.15N,139-43.05E,192,23.669,33.5105
648,2017/10/9,10:47,34-59.86N,139-42.97E,192,23.669,33.6173
649,2017/10/9,10:48,34-59.58N,139-42.90E,192,23.808,33.6439
650,2017/10/9,10:49,34-59.30N,139-42.82E,192,23.639,33.664
651,2017/10/9,10:50,34-59.01N,139-42.74E,192,23.606,33.6418
652,2017/10/9,10:51,34-58.72N,139-42.66E,192,23.71,33.5887
653,2017/10/9,10:52,34-58.43N,139-42.59E,191,23.895,33.5848
654,2017/10/9,10:53,34-58.14N,139-42.56E,180,23.89,33.6966
655,2017/10/9,10:54,34-57.85N,139-42.60E,171,23.848,33.7254
656,2017/10/9,10:55,34-57.58N,139-42.70E,157,23.849,33.6906
657,2017/10/9,10:56,34-57.32N,139-42.87E,151,23.698,33.6721
658,2017/10/9,10:57,34-57.05N,139-43.05E,151,23.6,33.6421
659,2017/10/9,10:58,34-56.78N,139-43.24E,150,23.518,33.5757
660,2017/10/9,10:59,34-56.52N,139-43.42E,149,23.428,33.5653
661,2017/10/9,11:00,34-56.26N,139-43.61E,148,23.434,33.5065
662,2017/10/9,11:01,34-55.99N,139-43.81E,148,23.417,33.4822
663,2017/10/9,11:02,34-55.72N,139-44.01E,148,23.471,33.4901
664,2017/10/9,11:03,34-55.45N,139-44.21E,148,23.451,33.487
665,2017/10/9,11:04,34-55.19N,139-44.41E,148,23.488,33.5065
666,2017/10/9,11:05,34-54.92N,139-44.61E,148,23.472,33.5079
667,2017/10/9,11:06,34-54.65N,139-44.81E,148,23.545,33.5113
668,2017/10/9,11:07,34-54.37N,139-45.01E,148,23.567,33.5297
669,2017/10/9,11:08,34-54.10N,139-45.22E,148,23.601,33.5463
670,2017/10/9,11:09,34-53.83N,139-45.42E,148,23.568,33.5996
671,2017/10/9,11:10,34-53.55N,139-45.62E,148,23.747,33.5691
672,2017/10/9,11:11,34-53.27N,139-45.83E,148,23.758,33.5992
673,2017/10/9,11:12,34-52.99N,139-46.03E,148,23.859,33.6512
674,2017/10/9,11:13,34-52.71N,139-46.25E,146,24.007,33.691
675,2017/10/9,11:14,34-52.45N,139-46.48E,144,24.085,33.7307
676,2017/10/9,11:15,34-52.18N,139-46.72E,143,24.077,33.8103
677,2017/10/9,11:16,34-51.92N,139-46.97E,141,23.789,33.8428
678,2017/10/9,11:17,34-51.71N,139-47.25E,125,23.712,33.7793
679,2017/10/9,11:18,34-51.55N,139-47.59E,120,23.795,33.6517
680,2017/10/9,11:19,34-51.38N,139-47.92E,120,23.776,33.6561
681,2017/10/9,11:20,34-51.23N,139-48.25E,118,23.859,33.6738
682,2017/10/9,11:21,34-51.10N,139-48.58E,116,23.962,33.6898
683,2017/10/9,11:22,34-50.97N,139-48.93E,113,24.08,33.7521
684,2017/10/9,11:23,34-50.85N,139-49.29E,111,24.262,33.7999
685,2017/10/9,11:24,34-50.74N,139-49.65E,110,24.34,33.9079
686,2017/10/9,11:25,34-50.64N,139-50.00E,109,24.276,33.9844
687,2017/10/9,11:26,34-50.54N,139-50.36E,109,24.327,34.0114
688,2017/10/9,11:27,34-50.45N,139-50.72E,106,24.526,33.9512
689,2017/10/9,11:28,34-50.36N,139-51.09E,106,24.771,33.9967
690,2017/10/9,11:29,34-50.27N,139-51.45E,103,24.732,34.0909
691,2017/10/9,11:30,34-50.21N,139-51.82E,101,24.807,34.1135
692,2017/10/9,11:31,34-50.15N,139-52.19E,100,24.823,34.1132
693,2017/10/9,11:32,34-50.11N,139-52.57E,97,24.831,34.1321
694,2017/10/9,11:33,34-50.07N,139-52.94E,96,24.834,34.1306
695,2017/10/9,11:34,34-50.04N,139-53.31E,94,24.799,34.1367
696,2017/10/9,11:35,34-50.02N,139-53.69E,94,24.791,34.1364
697,2017/10/9,11:36,34-50.00N,139-54.07E,94,24.818,34.14
698,2017/10/9,11:37,34-49.98N,139-54.45E,93,24.816,34.1432
699,2017/10/9,11:38,34-50.02N,139-54.81E,74,24.863,34.1473
700,2017/10/9,11:39,34-50.17N,139-55.11E,55,24.845,34.16
701,2017/10/9,11:40,34-50.35N,139-55.41E,54,24.812,34.1719
702,2017/10/9,11:41,34-50.53N,139-55.73E,55,24.796,34.1501
703,2017/10/9,11:42,34-50.71N,139-56.05E,55,24.666,34.1406
704,2017/10/9,11:43,34-50.89N,139-56.37E,56,24.428,34.126
705,2017/10/9,11:44,34-51.07N,139-56.70E,55,24.067,34.0548
706,2017/10/9,11:45,34-51.25N,139-57.01E,55,23.966,33.919
707,2017/10/9,11:46,34-51.43N,139-57.33E,55,24.041,33.7612
708,2017/10/9,11:47,34-51.61N,139-57.66E,55,24.254,33.7079
709,2017/10/9,11:48,34-51.79N,139-57.97E,55,24.386,33.7754
710,2017/10/9,11:49,34-51.98N,139-58.30E,55,24.4,33.9181
711,2017/10/9,11:50,34-52.16N,139-58.61E,52,24.41,33.9593
712,2017/10/9,11:51,34-52.37N,139-58.90E,48,24.378,33.9767
713,2017/10/9,11:52,34-52.60N,139-59.18E,46,24.375,33.9826
714,2017/10/9,11:53,34-52.83N,139-59.46E,44,24.371,33.9819
715,2017/10/9,11:54,34-53.06N,139-59.74E,43,24.351,33.9811
716,2017/10/9,11:55,34-53.29N,140-00.01E,43,24.333,33.9796
717,2017/10/9,11:56,34-53.53N,140-00.28E,44,24.359,33.9845
718,2017/10/9,11:57,34-53.76N,140-00.55E,43,24.349,33.9879
719,2017/10/9,11:58,34-53.99N,140-00.81E,43,24.461,34.0102
720,2017/10/9,11:59,34-54.21N,140-01.07E,44,24.497,34.0229
721,2017/10/9,12:00,34-54.43N,140-01.34E,45,24.439,34.0283
722,2017/10/9,12:01,34-54.64N,140-01.61E,47,24.561,34.0394
723,2017/10/9,12:02,34-54.84N,140-01.88E,47,24.629,33.9844
724,2017/10/9,12:03,34-55.03N,140-02.15E,49,24.781,33.9834
725,2017/10/9,12:04,34-55.22N,140-02.44E,52,24.828,34.0336
726,2017/10/9,12:05,34-55.40N,140-02.73E,53,24.817,34.0727
727,2017/10/9,12:06,34-55.59N,140-03.04E,53,24.798,34.0777
728,2017/10/9,12:07,34-55.77N,140-03.34E,54,24.805,34.09
729,2017/10/9,12:08,34-55.95N,140-03.65E,54,24.758,34.1047
730,2017/10/9,12:09,34-56.12N,140-03.96E,55,24.714,34.1063
731,2017/10/9,12:10,34-56.29N,140-04.28E,57,24.694,34.0962
732,2017/10/9,12:11,34-56.46N,140-04.61E,59,24.699,34.0856
733,2017/10/9,12:12,34-56.62N,140-04.95E,60,24.714,34.0891
734,2017/10/9,12:13,34-56.78N,140-05.28E,61,24.684,34.0753
735,2017/10/9,12:14,34-56.92N,140-05.62E,63,24.7,34.0801
736,2017/10/9,12:15,34-57.06N,140-05.97E,64,24.647,34.0679
737,2017/10/9,12:16,34-57.19N,140-06.32E,65,24.595,34.0518
738,2017/10/9,12:17,34-57.32N,140-06.65E,65,24.59,34.0266
739,2017/10/9,12:18,34-57.45N,140-06.99E,64,24.682,33.9887
740,2017/10/9,12:19,34-57.58N,140-07.33E,64,24.559,34.0345
741,2017/10/9,12:20,34-57.71N,140-07.67E,65,24.47,34.055
742,2017/10/9,12:21,34-57.84N,140-08.02E,65,24.447,33.9385
743,2017/10/9,12:22,34-57.97N,140-08.35E,65,24.55,33.9348
744,2017/10/9,12:23,34-58.09N,140-08.69E,65,25.087,33.9498
745,2017/10/9,12:24,34-58.22N,140-09.03E,66,25.444,34.0594
746,2017/10/9,12:25,34-58.35N,140-09.38E,66,25.649,34.1748
747,2017/10/9,12:26,34-58.47N,140-09.73E,67,25.679,34.2144
748,2017/10/9,12:27,34-58.59N,140-10.07E,67,25.602,34.2312
749,2017/10/9,12:28,34-58.71N,140-10.42E,66,25.686,34.2274
750,2017/10/9,12:29,34-58.84N,140-10.77E,67,25.819,34.2277
751,2017/10/9,12:30,34-58.95N,140-11.11E,66,25.863,34.2398
752,2017/10/9,12:31,34-59.07N,140-11.45E,67,25.887,34.2495
753,2017/10/9,12:32,34-59.19N,140-11.79E,67,25.918,34.2554
754,2017/10/9,12:33,34-59.31N,140-12.14E,68,25.933,34.2603
755,2017/10/9,12:34,34-59.42N,140-12.48E,67,25.939,34.2623
756,2017/10/9,12:35,34-59.53N,140-12.82E,67,25.952,34.2635
757,2017/10/9,12:36,34-59.65N,140-13.16E,67,25.947,34.2656
758,2017/10/9,12:37,34-59.76N,140-13.50E,68,25.935,34.2667
759,2017/10/9,12:38,34-59.88N,140-13.85E,68,25.929,34.2653
760,2017/10/9,12:39,34-59.99N,140-14.19E,68,25.933,34.2651
761,2017/10/9,12:40,35-00.11N,140-14.53E,67,25.938,34.2657
762,2017/10/9,12:41,35-00.22N,140-14.87E,67,25.935,34.2671
763,2017/10/9,12:42,35-00.34N,140-15.21E,68,25.903,34.2672
764,2017/10/9,12:43,35-00.45N,140-15.56E,68,25.933,34.266
765,2017/10/9,12:44,35-00.56N,140-15.91E,68,25.949,34.2682
766,2017/10/9,12:45,35-00.68N,140-16.25E,68,25.957,34.2714
767,2017/10/9,12:46,35-00.79N,140-16.60E,68,25.959,34.2743
768,2017/10/9,12:47,35-00.90N,140-16.96E,69,25.97,34.2753
769,2017/10/9,12:48,35-01.01N,140-17.30E,68,25.974,34.2758
770,2017/10/9,12:49,35-01.13N,140-17.65E,67,25.95,34.2793
771,2017/10/9,12:50,35-01.25N,140-18.00E,65,25.928,34.278
772,2017/10/9,12:51,35-01.39N,140-18.33E,63,25.913,34.2744
773,2017/10/9,12:52,35-01.53N,140-18.66E,62,25.92,34.2695
774,2017/10/9,12:53,35-01.67N,140-19.00E,63,25.906,34.2706
775,2017/10/9,12:54,35-01.81N,140-19.33E,62,25.926,34.2697
776,2017/10/9,12:55,35-01.95N,140-19.68E,63,25.944,34.2715
777,2017/10/9,12:56,35-02.09N,140-20.02E,63,25.956,34.2772
778,2017/10/9,12:57,35-02.23N,140-20.35E,63,25.952,34.2805
779,2017/10/9,12:58,35-02.37N,140-20.68E,63,25.936,34.2812
780,2017/10/9,12:59,35-02.51N,140-21.03E,63,25.928,34.2803
781,2017/10/9,13:00,35-02.66N,140-21.38E,63,25.899,34.2751
782,2017/10/9,13:01,35-02.80N,140-21.71E,63,25.882,34.2735
783,2017/10/9,13:02,35-02.94N,140-22.06E,62,25.866,34.2681
784,2017/10/9,13:03,35-03.08N,140-22.40E,63,25.848,34.2641
785,2017/10/9,13:04,35-03.23N,140-22.76E,63,25.839,34.2611
786,2017/10/9,13:05,35-03.37N,140-23.10E,63,25.841,34.2584
787,2017/10/9,13:06,35-03.51N,140-23.45E,63,25.811,34.2585
788,2017/10/9,13:07,35-03.66N,140-23.81E,63,25.798,34.2572
789,2017/10/9,13:08,35-03.81N,140-24.16E,62,25.768,34.2581
790,2017/10/9,13:09,35-03.96N,140-24.52E,63,25.741,34.2586
791,2017/10/9,13:10,35-04.10N,140-24.87E,63,25.709,34.2597
792,2017/10/9,13:11,35-04.25N,140-25.23E,63,25.77,34.2616
793,2017/10/9,13:12,35-04.40N,140-25.59E,63,25.762,34.2618
794,2017/10/9,13:13,35-04.56N,140-25.95E,63,25.753,34.2651
795,2017/10/9,13:14,35-04.70N,140-26.30E,62,25.8,34.265
796,2017/10/9,13:15,35-04.86N,140-26.66E,62,25.86,34.2691
797,2017/10/9,13:16,35-05.01N,140-27.01E,62,25.865,34.2724
798,2017/10/9,13:17,35-05.16N,140-27.38E,62,25.868,34.2756
799,2017/10/9,13:18,35-05.31N,140-27.73E,62,25.857,34.2756
800,2017/10/9,13:19,35-05.47N,140-28.09E,62,25.851,34.2738
801,2017/10/9,13:20,35-05.62N,140-28.45E,62,25.856,34.2723
802,2017/10/9,13:21,35-05.78N,140-28.81E,62,25.866,34.2711
803,2017/10/9,13:22,35-05.94N,140-29.17E,61,25.896,34.2725
804,2017/10/9,13:23,35-06.10N,140-29.53E,61,25.93,34.2753
805,2017/10/9,13:24,35-06.25N,140-29.89E,61,25.945,34.2821
806,2017/10/9,13:25,35-06.42N,140-30.25E,58,25.966,34.285
807,2017/10/9,13:26,35-06.60N,140-30.58E,55,25.977,34.2863
808,2017/10/9,13:27,35-06.82N,140-30.88E,43,25.997,34.2874
809,2017/10/9,13:28,35-07.09N,140-31.07E,26,25.985,34.2879
810,2017/10/9,13:29,35-07.38N,140-31.26E,28,25.977,34.2878
811,2017/10/9,13:30,35-07.67N,140-31.45E,29,25.981,34.2868
812,2017/10/9,13:31,35-07.96N,140-31.65E,28,25.969,34.2863
813,2017/10/9,13:32,35-08.26N,140-31.84E,28,25.962,34.2878
814,2017/10/9,13:33,35-08.56N,140-32.04E,28,25.979,34.2865
815,2017/10/9,13:34,35-08.86N,140-32.25E,28,25.947,34.2877
816,2017/10/9,13:35,35-09.15N,140-32.44E,28,25.948,34.288
817,2017/10/9,13:36,35-09.45N,140-32.64E,28,25.97,34.2824
818,2017/10/9,13:37,35-09.76N,140-32.84E,29,25.988,34.2841
819,2017/10/9,13:38,35-10.06N,140-33.05E,29,26,34.2864
820,2017/10/9,13:39,35-10.35N,140-33.24E,28,26.001,34.29
821,2017/10/9,13:40,35-10.65N,140-33.44E,29,26.01,34.2937
822,2017/10/9,13:41,35-10.95N,140-33.64E,28,26.002,34.2938
823,2017/10/9,13:42,35-11.25N,140-33.84E,29,26.016,34.295
824,2017/10/9,13:43,35-11.55N,140-34.04E,28,26.041,34.2953
825,2017/10/9,13:44,35-11.86N,140-34.25E,28,26.054,34.2963
826,2017/10/9,13:45,35-12.15N,140-34.45E,29,26.072,34.2967
827,2017/10/9,13:46,35-12.44N,140-34.65E,30,26.069,34.2982
828,2017/10/9,13:47,35-12.74N,140-34.87E,30,26.072,34.296
829,2017/10/9,13:48,35-13.03N,140-35.07E,29,26.066,34.2918
830,2017/10/9,13:49,35-13.33N,140-35.28E,30,26.046,34.2904
831,2017/10/9,13:50,35-13.62N,140-35.49E,31,26.041,34.2878
832,2017/10/9,13:51,35-13.92N,140-35.71E,31,26.026,34.2854
833,2017/10/9,13:52,35-14.20N,140-35.93E,32,25.943,34.2836
834,2017/10/9,13:53,35-14.50N,140-36.15E,31,25.69,34.279
835,2017/10/9,13:54,35-14.79N,140-36.37E,30,25.335,34.2576
836,2017/10/9,13:55,35-15.09N,140-36.57E,29,23.529,34.2269
837,2017/10/9,13:56,35-15.37N,140-36.76E,28,23.181,33.8225
838,2017/10/9,13:57,35-15.65N,140-36.95E,29,23.011,33.443
839,2017/10/9,13:58,35-15.93N,140-37.15E,30,23.099,33.2689
840,2017/10/9,13:59,35-16.21N,140-37.34E,29,23.085,33.2125
841,2017/10/9,14:00,35-16.49N,140-37.54E,30,23.211,33.2645
842,2017/10/9,14:01,35-16.75N,140-37.74E,32,23.447,33.2775
843,2017/10/9,14:02,35-17.03N,140-37.94E,30,23.842,33.3894
844,2017/10/9,14:03,35-17.29N,140-38.13E,30,24.126,33.6022
845,2017/10/9,14:04,35-17.55N,140-38.32E,31,24.197,33.888
846,2017/10/9,14:05,35-17.81N,140-38.52E,31,24.161,33.9606
847,2017/10/9,14:06,35-18.08N,140-38.72E,32,24.154,33.9764
848,2017/10/9,14:07,35-18.34N,140-38.92E,32,24.095,33.9776
849,2017/10/9,14:08,35-18.60N,140-39.12E,31,23.991,33.979
850,2017/10/9,14:09,35-18.86N,140-39.31E,31,23.884,33.9854
851,2017/10/9,14:10,35-19.12N,140-39.51E,31,23.824,33.9879
852,2017/10/9,14:11,35-19.39N,140-39.70E,30,23.862,33.9932
853,2017/10/9,14:12,35-19.65N,140-39.89E,30,23.897,33.9975
854,2017/10/9,14:13,35-19.92N,140-40.09E,31,23.93,34.0038
855,2017/10/9,14:14,35-20.19N,140-40.28E,31,23.957,34.0045
856,2017/10/9,14:15,35-20.45N,140-40.49E,32,23.885,34.0073
857,2017/10/9,14:16,35-20.72N,140-40.69E,31,23.816,34.0015
858,2017/10/9,14:17,35-20.97N,140-40.89E,32,23.657,33.9789
859,2017/10/9,14:18,35-21.24N,140-41.09E,32,23.597,33.9591
860,2017/10/9,14:19,35-21.51N,140-41.30E,33,23.561,33.9321
861,2017/10/9,14:20,35-21.77N,140-41.51E,33,23.536,33.9179
862,2017/10/9,14:21,35-22.02N,140-41.71E,33,23.502,33.9082
863,2017/10/9,14:22,35-22.29N,140-41.92E,32,23.486,33.8957
864,2017/10/9,14:23,35-22.55N,140-42.13E,33,23.349,33.8917
865,2017/10/9,14:24,35-22.82N,140-42.34E,33,23.132,33.8784
866,2017/10/9,14:25,35-23.08N,140-42.56E,34,22.931,33.8332
867,2017/10/9,14:26,35-23.33N,140-42.78E,34,22.717,33.7331
868,2017/10/9,14:27,35-23.59N,140-42.99E,33,22.373,33.6669
869,2017/10/9,14:28,35-23.85N,140-43.20E,34,22.399,33.5832
870,2017/10/9,14:29,35-24.10N,140-43.42E,34,22.488,33.5713
871,2017/10/9,14:30,35-24.36N,140-43.63E,34,22.555,33.5809
872,2017/10/9,14:31,35-24.62N,140-43.84E,33,22.721,33.6029
873,2017/10/9,14:32,35-24.87N,140-44.05E,34,22.788,33.641
874,2017/10/9,14:33,35-25.12N,140-44.26E,34,22.952,33.6887
875,2017/10/9,14:34,35-25.37N,140-44.48E,35,23.138,33.7173
876,2017/10/9,14:35,35-25.63N,140-44.69E,34,23.412,33.7867
877,2017/10/9,14:36,35-25.88N,140-44.91E,34,23.851,33.8349
878,2017/10/9,14:37,35-26.13N,140-45.12E,34,23.929,33.9752
879,2017/10/9,14:38,35-26.38N,140-45.33E,34,23.825,34.0202
880,2017/10/9,14:39,35-26.63N,140-45.54E,34,23.486,33.9767
881,2017/10/9,14:40,35-26.88N,140-45.75E,35,23.401,33.8619
882,2017/10/9,14:41,35-27.13N,140-45.96E,35,23.388,33.7918
883,2017/10/9,14:42,35-27.37N,140-46.18E,35,23.504,33.7536
884,2017/10/9,14:43,35-27.62N,140-46.40E,35,23.587,33.7554
885,2017/10/9,14:44,35-27.88N,140-46.60E,34,23.416,33.867
886,2017/10/9,14:45,35-28.13N,140-46.82E,34,23.429,33.8957
887,2017/10/9,14:46,35-28.38N,140-47.03E,35,23.428,33.8744
888,2017/10/9,14:47,35-28.63N,140-47.24E,34,23.522,33.8651
889,2017/10/9,14:48,35-28.88N,140-47.45E,34,23.797,33.8712
890,2017/10/9,14:49,35-29.14N,140-47.66E,33,23.909,33.9468
891,2017/10/9,14:50,35-29.39N,140-47.86E,32,23.893,34.0757
892,2017/10/9,14:51,35-29.65N,140-48.05E,31,23.862,34.1087
893,2017/10/9,14:52,35-29.91N,140-48.24E,31,23.878,34.1087
894,2017/10/9,14:53,35-30.17N,140-48.43E,31,23.903,34.0995
895,2017/10/9,14:54,35-30.43N,140-48.63E,32,23.865,34.0979
896,2017/10/9,14:55,35-30.69N,140-48.83E,31,23.78,34.0956
897,2017/10/9,14:56,35-30.95N,140-49.03E,31,23.735,34.0804